STARLINK-34711, 64912

Orbit data source: Space-Track

STARLINK-34711, 64912 is a payload satellite owned by SpaceX/Seattle (US) in LEO that was launched on Sat, 26 Jul 2025 UTC via an FALCON 9 launch vehicle from the Air Force Eastern Test Range (AFETR). Payload-class satellites include a variety of spacecraft equipped with specific instruments for various scientific and technological missions. These include communications satellites like Starlink; space stations such as the ISS; scientific satellites like the Hubble; Earth observation satellites from companies like Planet Labs, Umbra, and HawkEye 360; GPS; miniature CubeSats for education and research; and military/defense satellites.

Loading next visibility...
Identifier
64912, 2025-157J
Orbit
LEO
Country
Flag of USUS
Related business
Manufacturer
SpaceX/Seattle
Mission
Operational Commercial Communications
Bus & Motor
STARLINK V2MO, Unknown motor
Mass
575 kg wet, ~530 kg dry
Launch date (UTC)
2025-07-26 (4 months ago)
Launch vehicle
FALCON 9
Launch site
Air Force Eastern Test Range (AFETR)
Object type
Payload
Rocket body
Debris
Shape & HBR
Box + 2 Pan, 17.7 m
Radar Cross Section
36.964 m², Large (>1 m²)

Expand to show TLE details & history
Last TLE update: 17 hours ago

TLE from 17 hours ago
0 STARLINK-34711
1 64912U 25157J   25340.62128803  .00062205  00000-0  15502-2 0  9996
2 64912  53.1590  62.2981 0001311  95.2764 264.8390 15.39664771 21817
Epoch: 2025-12-06T14:54Z
TLE epoch observation values (Epoch: 2025-12-06T14:54:39.285Z)
Latitude
-0.00008°
Longitude
122.98796°
Altitude
448.084 km
Speed
7.645 km/s
True Right ascension
04h 09m 11s
True Declination
0° 00' 00"
Sunlit
Object was in full shadow at epoch
Visualization orbit readout
Latitude
Unknown
Longitude
Unknown
Altitude
Unknown
Speed
Unknown
Apparent Right ascension
Unknown
Apparent Declination
Unknown
Sunlit
N/A
Visualization observer readout
Local Sidereal Time
05:52:21
Azimuth
Unknown
Elevation
Unknown
Doppler factor
Unknown
Orbital elements
Apogee altitude
448.252 km
Perigee altitude
446.463 km
Semi-major axis
6,825.494 km
Eccentricity
0.00013
Inclination
53.159°
RAAN
62.2981°
Arg. of periapsis
95.2764°
True anomaly
264.82404°
Mean anomaly
264.839°
Eccentric anomaly
264.83152°
Mean motion
3.84895 °/min
Orbital period
93.53 mins
BSTAR
0.0015502
Loading maneuver chart data...
Computing Atmospheric mass density...
Loading historical data...
Loading historical data...
Loading historical data...
Loading historical data...
Loading historical data...
Loading historical data...
Loading historical data...

Documentation

Showing up to 5 results
|